Regional Weather Roundup
Issued by NWS

Home | Current Version | Previous Version | Graphics & Text | Print | Product List | Glossary On
Versions: 1 2 3 4 5 6 7 8 9 10 11 12 13 14 15 16 17 18 19 20 21 22 23 24 25 26 27 28 29 30 31 32 33 34 35 36 37 38 39 40 41 42 43 44 45 46 47 48 49 50
000
ASUS45 KBOI 291610
RWRID

IDAHO REGIONAL WEATHER ROUNDUP
NATIONAL WEATHER SERVICE BOISE ID
1000 AM MDT SAT AUG 29 2015

NOTE: "FAIR" INDICATES FEW OR NO CLOUDS BELOW 12000 FEET
WITH NO SIGNIFICANT WEATHER AND/OR OBSTRUCTIONS TO VISIBILITY

IDZ012-014-291700-
SOUTHWEST IDAHO


CITY           SKY/WX    TMP DP  RH WIND       PRES   REMARKS
BOISE          CLOUDY    80  43  26 SE12      29.86R
CALDWELL       CLOUDY    70  45  40 CALM      29.85R
MOUNTAIN HOME  CLOUDY    75  46  35 E10       29.88R
$$

IDZ016-017-291700-
SOUTHCENTRAL IDAHO


CITY           SKY/WX    TMP DP  RH WIND       PRES   REMARKS
JEROME         CLOUDY    73  56  54 CALM      29.98R
TWIN FALLS     CLOUDY    85  41  21 S21G31    29.95R
$$

IDZ019>023-291700-
SOUTHEAST IDAHO


CITY           SKY/WX    TMP DP  RH WIND       PRES   REMARKS
IDAHO FALLS    PTSUNNY   72  50  45 SE7       30.06F
POCATELLO      PTSUNNY   77  40  26 NE3       30.02F
REXBURG        PTSUNNY   69  48  47 SE7       30.08F
$$

IDZ006-010-011-018-031-032-291700-
CENTRAL IDAHO MOUNTAINS


CITY           SKY/WX    TMP DP  RH WIND       PRES   REMARKS
MCCALL         LGT RAIN  67  44  43 E13       29.97R
HAILEY         PTSUNNY   68  46  45 NW7       30.08S
STANLEY          N/A     66  41  40 S7        30.09F
SALMON         CLOUDY    66  52  59 CALM      29.94S
CHALLIS        CLOUDY    67  47  48 CALM      30.01F
$$

IDZ002-004-006-007-026-291700-
NORTHERN IDAHO


CITY           SKY/WX    TMP DP  RH WIND       PRES   REMARKS
LEWISTON       HAZE      75  46  35 S8        29.62F VSB 1
LOWELL           N/A     61  53  75 NW8       29.75S
COEUR D`ALENE  CLOUDY    68  48  49 NE6       29.67R
MULLAN PASS    CLOUDY    63  38  39 VRB5      29.93S HAZE
$$



USA.gov is the U.S. government's official web portal to all federal, state and local government web resources and services.